Location: Clarion Elementary School
(42.7352°N, 93.7294°W)
Time: 15:24:47
(UTC+00:00)

Daily predictions for brighter satellites

Satellite Brightness Start Highest point End
(mag) Time Altitude Azimuth Time Altitude Azimuth Time Altitude Azimuth
Meteor PRIRODA 3.9 12:01:16 10° NNE 12:04:52 67° ESE 12:08:28 10° S
CZ-4B R/B 3.2 12:02:12 10° NNE 12:05:44 58° E 12:09:18 10° S
Cosmos 1151 Rocket 4.2 12:10:05 23° W 12:10:11 23° W 12:13:36 10° SW
H-2A R/B 2.8 12:06:50 10° SSE 12:10:59 53° ENE 12:15:16 10° N
SL-27 R/B 2.4 12:08:54 20° NNW 12:11:11 60° WSW 12:14:39 10° S
NOAA 11 4.1 12:07:31 10° N 12:13:00 79° WNW 12:18:29 10° SSW
Meteor 2-19 Rocket 4.4 12:08:13 10° SSW 12:14:13 65° W 12:20:15 10° N
Cosmos 1515 4.4 12:10:29 10° N 12:14:14 56° E 12:17:58 10° SSE
Cosmos 1340 Rocket 2.7 12:12:06 10° SSW 12:16:02 81° W 12:20:04 10° N
Lacrosse 4 Rocket 4.3 12:16:05 10° NNE 12:16:36 10° NE 12:17:08 10° NE
CZ-2C R/B 3.0 12:12:40 10° NNE 12:17:37 90° W 12:22:47 10° SSW
SL-8 R/B 4.1 12:16:55 20° WNW 12:20:02 49° SW 12:24:37 10° SE
H-2A R/B 4.1 12:19:48 10° NE 12:24:04 29° E 12:28:21 10° SSE
ATLAS 5 CENTAUR R/B 1.4 12:21:53 10° SW 12:25:36 51° NW 12:29:47 10° NNE
Cosmos 1777 Rocket 4.1 12:21:32 10° SW 12:26:37 54° WNW 12:31:47 10° NNE
NOSS 2 (A) 4.0 12:28:04 17° NW 12:29:57 82° SW 12:32:20 10° SSE
Cosmos 773 Rocket 4.4 12:25:55 10° NNW 12:30:49 43° WSW 12:35:39 10° S
USA 32 4.0 12:26:54 10° N 12:32:11 86° W 12:37:25 10° S
Meteor 1-27 Rocket 3.9 12:26:55 10° NNW 12:32:28 55° W 12:38:04 10° S
BREEZE-M DEB 3.6 12:31:52 10° WSW 12:35:06 89° NNW 12:45:38 10° ENE
CZ-4B R/B 2.5 12:32:26 10° SSE 12:35:36 44° ENE 12:38:43 10° N
Cosmos 1939 Rocket 2.7 12:34:49 10° N 12:38:44 77° WNW 12:42:35 10° SSW
Alouette 2 Rocket 3.1 12:36:08 10° NNW 12:39:44 62° W 12:43:22 10° S
Meteor 1-31 Rocket 4.3 12:38:57 10° NNW 12:41:29 17° WNW 12:44:01 10° WSW
Envisat 4.3 12:41:06 10° NNW 12:44:34 19° WNW 12:48:02 10° WSW
CENTAUR R/B 4.3 12:40:28 10° NW 12:44:39 17° NNW 12:49:15 10° NNE
DMSP B5D2-2 4.4 12:40:27 10° S 12:45:27 47° W 12:50:29 10° NNW
COSMO-SKYMED 1 4.3 12:43:41 10° SW 12:46:06 15° W 12:48:32 10° WNW
NOAA 6 4.1 12:41:51 10° NNE 12:47:00 86° ESE 12:52:07 10° SSW
SL-4 R/B 2.5 12:43:58 10° SW 12:47:24 55° SE 12:51:05 10° ENE
Cosmos 158 Rocket 4.0 12:45:49 10° NNW 12:50:56 65° WSW 12:56:09 10° S
Cosmos 1633 Rocket 4.2 12:47:40 10° SSE 12:51:49 47° E 12:55:59 10° NNE
Okean 1 3.3 12:49:04 10° N 12:53:03 89° W 12:56:59 10° S
Cosmos 2026 Rocket 4.0 12:49:17 10° SSW 12:55:37 72° W 13:01:54 10° N
CZ-2D R/B 3.5 12:51:57 10° NNE 12:55:45 76° ESE 12:59:31 10° S
Meteor 1-25 Rocket 4.3 12:52:34 10° SSW 12:58:05 58° WNW 13:03:37 10° N
BREEZE-M R/B 4.5 23:02:04 10° WNW 23:05:25 39° SSW 23:11:47 10° SE
Cosmos 1980 Rocket 2.6 23:02:25 10° NNW 23:07:44 39° ENE 23:12:59 10° SE
Cosmos 1898 Rocket 3.5 23:02:30 10° NNW 23:07:46 78° ENE 23:12:57 10° SSE
Cosmos 1602 3.9 23:08:39 10° N 23:12:25 49° E 23:16:11 10° SSE
SMAP 3.3 23:09:25 10° SE 23:13:50 45° ENE 23:18:17 10° N
Cosmos 2369 3.8 23:09:39 10° NNW 23:15:18 56° ENE 23:20:54 10° SE
Cosmos 1743 Rocket 3.5 23:11:12 10° N 23:15:32 89° ENE 23:19:53 10° S
ISS -3.3 23:12:43 10° NW 23:15:59 43° NNE 23:19:15 10° E
ADEOS 4.4 23:11:24 10° S 23:16:31 57° WSW 23:21:41 10° NNW
CORIOLIS 4.4 23:11:28 10° SE 23:16:35 46° ENE 23:21:45 10° N
FengYun 1-2 T 4.2 23:12:16 10° SSE 23:17:47 66° ENE 23:23:17 10° N
CZ-4C R/B 3.3 23:11:12 10° NNW 23:18:04 46° NE 23:26:01 10° ESE
SL-16 R/B 3.6 23:18:22 10° N 23:22:00 17° NE 23:25:37 10° E
Cosmos 2082 Rocket 2.3 23:17:44 10° S 23:23:19 62° ESE 23:28:55 10° NNE
Cosmos 1939 Rocket 2.9 23:20:57 10° SSE 23:25:00 63° ENE 23:29:03 10° N
Cosmos 1627 Rocket 4.5 23:19:49 10° N 23:25:58 65° E 23:32:00 10° SSE
Cosmos 2279 Rocket 4.5 23:20:38 10° SSE 23:26:18 39° E 23:31:58 10° NNE
Cosmos 1763 Rocket 4.4 23:21:46 10° SW 23:26:38 48° WNW 23:31:37 10° N
Okean O Rocket 3.0 23:23:50 10° ESE 23:26:43 17° ENE 23:29:38 10° NNE
Cosmos 1666 Rocket 4.3 23:22:49 10° NNE 23:26:47 31° ENE 23:30:42 10° SE
Cosmos 44 Rocket 4.3 23:25:34 10° NNW 23:29:41 26° NE 23:33:40 10° E
Cosmos 1500 3.2 23:27:22 10° N 23:31:02 51° E 23:34:40 10° SSE
ARGOS 4.1 23:28:19 10° ESE 23:32:37 25° ENE 23:36:54 10° N
Cosmos 841 Rocket 3.5 23:30:01 10° SSW 23:35:10 88° E 23:40:21 10° NNE
Cosmos 1782 2.7 23:33:24 10° S 23:37:23 82° E 23:41:23 10° N
CZ-4B DEB 4.2 23:32:21 10° SSE 23:37:45 60° ENE 23:43:09 10° N
CZ-2D R/B 3.7 23:34:30 10° SE 23:38:03 38° ENE 23:41:37 10° N
Cosmos 2278 3.9 23:32:54 10° NNW 23:38:27 49° ENE 23:43:56 10° SE
CZ-2C R/B 3.7 23:34:20 10° S 23:39:07 55° W 23:43:48 10° NNW
Meteor 2-14 Rocket 4.4 23:33:50 10° N 23:39:57 75° E 23:46:00 10° SSE
Cosmos 1833 Rocket 3.7 23:35:08 10° SW 23:40:31 46° WNW 23:45:57 10° NNE
ATLAS CENTAUR R/B 3.6 23:31:05 10° WSW 23:41:34 55° NW 23:45:46 11° NE
NOSS 2-2 (C) 4.4 23:37:02 10° NNW 23:42:27 78° NE 23:50:03 10° SE
H-2A R/B 2.2 23:37:39 10° SE 23:42:33 46° ENE 23:47:20 10° N
Cosmos 1937 Rocket 3.9 23:38:47 10° NNW 23:44:06 71° WSW 23:49:22 10° S
SKYMED 2 4.5 23:40:21 10° NE 23:44:08 28° E 23:47:53 10° SSE
Cosmos 1634 Rocket 4.0 23:39:53 10° S 23:46:12 88° E 23:52:35 10° N
Sich 1 3.0 23:42:57 10° N 23:47:16 85° W 23:51:36 10° S
USA 267 3.5 23:41:27 10° NE 23:47:54 69° NW 23:54:23 10° WSW
Cosmos 372 Rocket 3.9 23:42:48 10° NNW 23:48:04 81° ENE 23:53:19 10° SSE
Cosmos 2026 Rocket 4.0 23:43:50 10° N 23:49:59 85° W 23:56:02 10° S
Cosmos 1125 Rocket 4.4 23:46:20 10° N 23:50:41 26° ENE 23:55:02 10° ESE
COSMOS 2406 4.1 23:45:35 10° SW 23:51:08 50° WNW 23:56:44 10° NNE
Cosmos 1900 4.4 23:46:29 10° SSW 23:51:14 58° ESE 23:55:09 15° NE
Cosmos 1805 Rocket 4.4 23:51:03 10° NNW 23:55:17 53° W 23:59:29 10° S
